DECAYED

STARLINK-1990, 47586 (Decayed)

Orbit data source: Space-Track

STARLINK-1990, 47586 was a payload satellite owned by SpaceX/Seattle (US) in LEO that was launched on Thu, 04 Feb 2021 UTC via an FALCON 9 launch vehicle from the Air Force Eastern Test Range (AFETR). Payload-class satellites include a variety of spacecraft equipped with specific instruments for various scientific and technological missions. These include communications satellites like Starlink; space stations such as the ISS; scientific satellites like the Hubble; Earth observation satellites from companies like Planet Labs, Umbra, and HawkEye 360; GPS; miniature CubeSats for education and research; and military/defense satellites.

Not visible in the next 10 days
Identifier
47586, 2021-009AQ
Orbit
Decayed
Country
Flag of USUS
Related business
Manufacturer
SpaceX/Seattle
Mission
Decayed Commercial Communications
Bus & Motor
STARLINK, Unknown motor
Mass
260 kg wet, ~248 kg dry
Launch date (UTC)
2021-02-04 (5 years ago)
Launch vehicle
FALCON 9
Launch site
Air Force Eastern Test Range (AFETR)
Object type
Payload
Rocket body
Debris
Shape & HBR
Box + 1 Pan, 10.1 m
Radar Cross Section
13.562 m², Large (>1 m²)

Expand to show TLE details & history
Last TLE update: 1 year ago

TLE from 1 year ago
0 STARLINK-1990
1 47586U 21009AQ  25065.94576595  .08211538  12309-4  10275-2 0  9994
2 47586  53.0291 210.4249 0008076 311.1288 141.3368 16.35187487226274
Epoch: 2025-03-06T22:41Z
TLE epoch observation values (Epoch: 2025-03-06T22:41:54.178Z)
Latitude
53.11361°
Longitude
159.23185°
Altitude
189.235 km
Speed
7.797 km/s
True Right ascension
20h 18m 28s
True Declination
52° 56' 02"
Sunlit
Object was in daylight at epoch
Visualization orbit readout
Latitude
Unknown
Longitude
Unknown
Altitude
Unknown
Speed
Unknown
Apparent Right ascension
Unknown
Apparent Declination
Unknown
Sunlit
N/A
Visualization observer readout
Local Sidereal Time
23:07:48
Azimuth
Unknown
Elevation
Unknown
Doppler factor
Unknown
Orbital elements
Apogee altitude
184.221 km
Perigee altitude
173.63 km
Semi-major axis
6,557.063 km
Eccentricity
0.00081
Inclination
53.0291°
RAAN
210.4249°
Arg. of periapsis
311.1288°
True anomaly
141.39457°
Mean anomaly
141.3368°
Eccentric anomaly
141.36569°
Mean motion
4.0877 °/min
Orbital period
88.07 mins
BSTAR
0.0010275
Loading maneuver chart data...
Computing Atmospheric mass density...

Documentation

Showing up to 5 results
|